Regional Weather Roundup
Issued by NWS

Home | Current Version | Previous Version | Text Only | Print | Product List | Glossary Off
Versions: 1 2 3 4 5 6 7 8 9 10 11 12 13 14 15 16 17 18 19 20 21 22 23 24 25 26 27 28 29 30 31 32 33 34 35 36 37 38 39 40 41 42 43 44 45 46 47 48 49 50

000
ASUS43 KLOT 031112
RWRIL

ILLINOIS REGIONAL WEATHER ROUNDUP
NATIONAL WEATHER SERVICE CHICAGO/ROMEOVILLE IL
500 AM CST SAT DEC 03 2016

NOTE: "FAIR" INDICATES FEW OR NO CLOUDS BELOW 12,000 FEET WITH NO
SIGNIFICANT WEATHER AND/OR OBSTRUCTIONS TO VISIBILITY.

* THESE STATIONS ARE NOT UNDER NWS QUALITY CONTROL. THEY ALSO MAY NOT
  REPORT WEATHER SUCH AS PRECIPITATION OR FOG.

ILZ001-002-007-009-015-016-024-031200-
NORTHWEST ILLINOIS

CITY           SKY/WX    TMP DP  RH WIND       PRES   REMARKS
MOLINE         CLOUDY    35  24  64 NW9       30.37S WCI  28
$$

ILZ003-004-008-010-011-017-018-031200-
NORTH CENTRAL ILLINOIS

CITY           SKY/WX    TMP DP  RH WIND       PRES   REMARKS
ROCKFORD       CLOUDY    32  22  66 W12       30.37  WCI  23
DE KALB*       CLOUDY    31  25  78 W5        30.35R WCI  26
$$

ILZ005-006-012>014-019>023-031200-
NORTHEAST ILLINOIS

CITY           SKY/WX    TMP DP  RH WIND       PRES   REMARKS
CHICAGO-OHARE  CLOUDY    32  23  69 W9        30.34R WCI  24
CHICAGO-MIDWAY CLOUDY    34  21  59 W10       30.35R WCI  26
AURORA         CLOUDY    33  26  75 NW5       30.35R WCI  29
JOLIET*        CLOUDY    35  27  74 NW3       30.36S
WAUKEGAN       NOT AVBL
DUPAGE AIRPORT CLOUDY    32  22  66 W9        30.34R WCI  24
KANKAKEE*      CLOUDY    34  28  79 W8        30.36R WCI  27
WHEELING       CLOUDY    32  22  66 W8        30.35R WCI  25
MORRIS*        CLOUDY    33  26  74 W5        30.35S WCI  29
ROMEOVILLE*    CLOUDY    32  27  82 NW7       30.35R WCI  26
NORTHERLY ISL    N/A     34  23  64 W10         N/A  WCI  26
$$

LMZ740>746-031200-
SOUTHERN LAKE MICHIGAN

STATION/POSITION SKY/WX   TEMP    WIND        PRES    VSBY  WAVE
                          AIR SEA DIR/SP/G                  HT/PER
                          (F)     (DEG/KT/KT) (MB)    (MI)  (FT/S)
SOUTHERN BUOY              35 49  300/  6/ 12 1027.0R         2/ 5
HARRISON CRIB              35     270/ 11/ 12   N/A
BURNHAM HARBOR             34     250/  9/ 10   N/A
CALUMET HARBOR             33     240/  5/  9 1026.9R
BURNS HARBOR               35     250/ 10/ 13 1027.8R
MICHIGAN CITY              36     230/ 15/ 17   N/A
$$

ILZ025>027-034>036-040-047-049-050-058-095>099-031200-
WEST-CENTRAL ILLINOIS

CITY           SKY/WX    TMP DP  RH WIND       PRES   REMARKS
QUINCY         CLOUDY    31  30  96 NE5       30.35F WCI  26
GALESBURG*     CLOUDY    32  29  89 CALM      30.37S
MACOMB*        CLOUDY    34  32  92 CALM      30.39S
JACKSONVILLE*  PTCLDY    32  30  95 CALM      30.36F
PITTSFIELD*    PTCLDY    29  28  96 CALM      30.36F
$$

ILZ028>032-037-038-041>044-048-051>054-059>061-031200-
CENTRAL ILLINOIS

CITY           SKY/WX    TMP DP  RH WIND       PRES   REMARKS
PONTIAC        CLOUDY    33  31  92 NW8       30.37S WCI  26
DECATUR        CLOUDY    37  29  72 CALM      30.37R
PEORIA         CLOUDY    34  27  75 NW3       30.37
LACON*         CLOUDY    32  27  80 NW7       30.37R WCI  26
LINCOLN*       CLOUDY    37  30  78 NW3       30.37S
SPRINGFIELD    CLOUDY    36  32  85 CALM      30.37S
TAYLORVILLE    CLOUDY    33  32  95 CALM      30.36F
$$

ILZ033-039-045-046-055>057-062-063-031200-
EAST-CENTRAL ILLINOIS

CITY           SKY/WX    TMP DP  RH WIND       PRES   REMARKS
CHAMPAIGN      MOCLDY    32  28  85 SW5       30.36R WCI  27
RANTOUL*       CLOUDY    36  30  78 NW8       30.35R WCI  30
MATTOON        CLOUDY    35  30  82 N6        30.35S WCI  30
PARIS*         CLOUDY    35  30  84 CALM      30.37R
$$

ILZ079-100>102-031200-
SOUTHWEST ILLINOIS

CITY           SKY/WX    TMP DP  RH WIND       PRES   REMARKS
ALTON          CLOUDY    29  28  97 CALM      30.36S
BELLEVILLE     PTCLDY    30  30 100 CALM      30.36R
CAHOKIA*       CLOUDY    30  28  92 CALM      30.37R
SPARTA*        CLOUDY    31  29  93 CALM      30.37S
$$

ILZ064>066-069>071-074>076-080>082-084>086-088>090-092>094-031200-
SOUTH-CENTRAL ILLINOIS

CITY           SKY/WX    TMP DP  RH WIND       PRES   REMARKS
CARBONDALE     CLOUDY    29  29 100 CALM      30.36F
EFFINGHAM*     CLOUDY    37  35  93 CALM      30.36F
MARION         CLOUDY    30  30 100 CALM      30.37F FOG
SALEM*         CLOUDY    32  30  92 CALM      30.35F
METROPOLIS*    PTCLDY    31  30  96 CALM      30.37S FOG
$$

ILZ067-068-072-073-078-083-087-091-031200-
SOUTHEAST ILLINOIS

CITY           SKY/WX    TMP DP  RH WIND       PRES   REMARKS
LAWRENCEVILLE  CLOUDY    39  33  79 CALM      30.36F
FLORA*         CLOUDY    35  32  88 NW3       30.36F
FAIRFIELD*     PTCLDY    30  30  99 CALM      30.35F FOG
HARRISBURG*    PTCLDY    29  29  98 CALM      30.37F FOG
ROBINSON*      CLOUDY    38  33  82 N5        30.37S WCI  34
CARMI*         CLOUDY    29  29 100 CALM      30.35F FOG
$$

ABBREVIATIONS USED IN REMARKS
   TC - TEMPERATURE IN CELSIUS
  WCI - WIND CHILL INDEX
   HX - HEAT INDEX
  VSB - VISIBILITY
$$




USA.gov is the U.S. government's official web portal to all federal, state and local government web resources and services.